| time (UTC) | temp F | wind direction | speed MPH | gust MPH | rain 1hr in | rain 24hr in | rain mn in | humidity % | barometer mb |
| 20260506043901 | 39 | 290 | 0.0 | 0.0 | 0.00 | 0.00 | 0.00 | 77 | 1011.2 |
| 20260506042900 | 39 | 292 | 0.0 | 0.0 | 0.00 | 0.00 | 0.00 | 77 | 1011.2 |
| 20260506042134 | 39 | 292 | 0.0 | 0.0 | 0.00 | 0.00 | 0.00 | 77 | 1011.2 |
| 20260506041134 | 39 | 289 | 0.0 | 0.0 | 0.00 | 0.00 | 0.00 | 77 | 1011.2 |
| 20260506040134 | 39 | 290 | 0.0 | 0.0 | 0.00 | 0.00 | 0.00 | 76 | 1011.2 |
| 20260506035133 | 40 | 289 | 0.0 | 0.0 | 0.00 | 0.00 | 0.00 | 74 | 1011.2 |
| 20260506034133 | 41 | 289 | 0.0 | 0.0 | 0.00 | 0.00 | 0.00 | 74 | 1011.2 |
| 20260506033135 | 41 | 290 | 0.0 | 0.0 | 0.00 | 0.00 | 0.00 | 76 | 1011.3 |
| 20260506032135 | 41 | 290 | 0.0 | 0.0 | 0.00 | 0.00 | 0.00 | 77 | 1011.3 |
| 20260506031134 | 41 | 288 | 0.0 | 0.0 | 0.00 | 0.00 | 0.00 | 78 | 1011.3 |
| 20260506030134 | 39 | 290 | 0.0 | 0.0 | 0.00 | 0.00 | 0.00 | 78 | 1011.2 |
| 20260506025134 | 40 | 289 | 0.0 | 0.0 | 0.00 | 0.00 | 0.00 | 78 | 1011.2 |
| 20260506024133 | 40 | 288 | 0.0 | 0.0 | 0.00 | 0.00 | 0.00 | 77 | 1011.1 |
| 20260506023133 | 40 | 289 | 0.0 | 0.0 | 0.00 | 0.00 | 0.00 | 76 | 1011.2 |
| 20260506022135 | 41 | 290 | 0.0 | 0.0 | 0.00 | 0.00 | 0.00 | 74 | 1011.2 |
| 20260506021134 | 42 | 290 | 0.0 | 0.0 | 0.00 | 0.00 | 0.00 | 74 | 1011.2 |
| 20260506020134 | 42 | 290 | 0.0 | 0.0 | 0.00 | 0.00 | 0.00 | 75 | 1011.2 |
| 20260506015132 | 42 | 290 | 0.0 | 0.0 | 0.00 | 0.00 | 0.00 | 75 | 1011.2 |
| 20260506014132 | 41 | 288 | 0.0 | 0.0 | 0.00 | 0.00 | 0.00 | 78 | 1011.3 |
| 20260506013133 | 42 | 288 | 0.0 | 0.0 | 0.00 | 0.00 | 0.00 | 74 | 1011.1 |
| 20260506012133 | 43 | 288 | 0.0 | 0.0 | 0.00 | 0.00 | 0.00 | 74 | 1011.1 |
| 20260506011133 | 42 | 290 | 0.0 | 0.0 | 0.00 | 0.00 | 0.00 | 76 | 1011.1 |
| 20260506010131 | 42 | 290 | 0.0 | 0.0 | 0.00 | 0.00 | 0.00 | 76 | 1011.2 |
| 20260506005133 | 42 | 289 | 0.0 | 0.0 | 0.00 | 0.00 | 0.00 | 75 | 1011.2 |
| 20260506004133 | 41 | 290 | 0.0 | 0.0 | 0.00 | 0.00 | 0.00 | 76 | 1011.4 |
| 20260506003133 | 41 | 290 | 0.0 | 0.0 | 0.00 | 0.00 | 0.00 | 77 | 1011.5 |
| 20260506002132 | 41 | 359 | 0.0 | 0.0 | 0.00 | 0.00 | 0.00 | 74 | 1011.4 |
| 20260506001132 | 45 | 359 | 0.0 | 0.0 | 0.00 | 0.00 | 0.00 | 68 | 1011.3 |
| 20260506000132 | 45 | 359 | 0.0 | 0.0 | 0.00 | 0.00 | 0.00 | 68 | 1011.4 |
| 20260505235131 | 45 | 359 | 0.0 | 0.0 | 0.00 | 0.00 | 0.00 | 69 | 1011.4 |
| 20260505234133 | 44 | 359 | 0.0 | 0.0 | 0.00 | 0.00 | 0.00 | 69 | 1011.4 |
| 20260505233133 | 45 | 359 | 0.0 | 0.0 | 0.00 | 0.00 | 0.00 | 68 | 1011.4 |
| 20260505232133 | 45 | 359 | 0.0 | 0.0 | 0.00 | 0.00 | 0.00 | 67 | 1011.5 |
| 20260505231133 | 46 | 359 | 0.0 | 0.0 | 0.00 | 0.00 | 0.00 | 66 | 1011.5 |
| 20260505230132 | 46 | 359 | 0.0 | 0.0 | 0.00 | 0.00 | 0.00 | 66 | 1011.6 |
| 20260505225132 | 45 | 359 | 0.0 | 0.0 | 0.00 | 0.00 | 0.00 | 67 | 1011.6 |
| 20260505224132 | 46 | 359 | 0.0 | 0.0 | 0.00 | 0.00 | 0.00 | 66 | 1011.5 |
| 20260505223133 | 46 | 359 | 0.0 | 0.0 | 0.00 | 0.00 | 0.00 | 67 | 1011.6 |
| 20260505222133 | 46 | 7 | 0.0 | 0.0 | 0.00 | 0.02 | 0.00 | 66 | 1011.7 |
| 20260505221133 | 45 | 6 | 0.0 | 1.0 | 0.00 | 0.02 | 0.00 | 66 | 1011.8 |
| 20260505220133 | 47 | 304 | 0.0 | 0.0 | 0.00 | 0.04 | 0.02 | 64 | 1011.7 |
| 20260505210133 | 46 | 325 | 0.0 | 2.0 | 0.00 | 0.18 | 0.02 | 65 | 1011.4 |
| 20260505205133 | 46 | 325 | 0.0 | 2.0 | 0.00 | 0.18 | 0.02 | 65 | 1011.4 |
| 20260505204132 | 46 | 320 | 0.0 | 3.0 | 0.00 | 0.18 | 0.02 | 65 | 1011.4 |
| 20260505203132 | 45 | 292 | 1.0 | 3.0 | 0.00 | 0.18 | 0.02 | 66 | 1011.3 |
| 20260505202133 | 45 | 279 | 2.0 | 5.0 | 0.00 | 0.18 | 0.02 | 65 | 1011.2 |
| 20260505201133 | 45 | 296 | 2.0 | 6.0 | 0.00 | 0.18 | 0.02 | 63 | 1011.1 |
| 20260505200132 | 47 | 318 | 2.0 | 7.0 | 0.00 | 0.18 | 0.02 | 62 | 1010.9 |
| 20260505195132 | 47 | 324 | 1.0 | 5.0 | 0.00 | 0.18 | 0.02 | 60 | 1010.9 |
| 20260505194132 | 48 | 286 | 1.0 | 4.0 | 0.00 | 0.18 | 0.02 | 60 | 1010.7 |
| 20260505193131 | 50 | 359 | 1.0 | 4.0 | 0.00 | 0.18 | 0.02 | 56 | 1010.5 |
| 20260505192133 | 51 | 309 | 0.0 | 3.0 | 0.00 | 0.18 | 0.02 | 54 | 1010.4 |
| 20260505191132 | 51 | 253 | 0.0 | 3.0 | 0.00 | 0.18 | 0.02 | 53 | 1010.3 |
| 20260505190132 | 52 | 318 | 0.0 | 2.0 | 0.00 | 0.18 | 0.02 | 52 | 1010.3 |
| 20260505185133 | 52 | 285 | 1.0 | 4.0 | 0.00 | 0.18 | 0.02 | 51 | 1010.2 |
| 20260505184133 | 52 | 230 | 0.0 | 3.0 | 0.00 | 0.18 | 0.02 | 50 | 1010.1 |
| 20260505183133 | 53 | 346 | 1.0 | 5.0 | 0.00 | 0.18 | 0.02 | 47 | 1010.0 |
| 20260505182132 | 55 | 254 | 2.0 | 6.0 | 0.00 | 0.18 | 0.02 | 42 | 1009.9 |
| 20260505181132 | 55 | 295 | 1.0 | 4.0 | 0.00 | 0.18 | 0.02 | 39 | 1009.7 |
| 20260505180132 | 56 | 268 | 1.0 | 7.0 | 0.00 | 0.18 | 0.02 | 41 | 1009.6 |
| 20260505175134 | 56 | 244 | 1.0 | 5.0 | 0.00 | 0.18 | 0.02 | 40 | 1009.6 |
| 20260505174133 | 58 | 271 | 2.0 | 5.0 | 0.00 | 0.18 | 0.02 | 37 | 1009.6 |
| 20260505173133 | 57 | 281 | 2.0 | 5.0 | 0.00 | 0.18 | 0.02 | 36 | 1009.6 |
| 20260505172133 | 60 | 84 | 1.0 | 4.0 | 0.00 | 0.18 | 0.02 | 36 | 1009.7 |
| 20260505171132 | 60 | 301 | 1.0 | 4.0 | 0.00 | 0.18 | 0.02 | 39 | 1009.7 |
| 20260505170132 | 57 | 275 | 1.0 | 4.0 | 0.00 | 0.18 | 0.02 | 39 | 1009.5 |
| 20260505165132 | 60 | 289 | 2.0 | 5.0 | 0.00 | 0.18 | 0.02 | 38 | 1009.6 |
| 20260505164132 | 59 | 345 | 2.0 | 7.0 | 0.00 | 0.18 | 0.02 | 38 | 1009.6 |
| 20260505163132 | 61 | 342 | 1.0 | 5.0 | 0.00 | 0.18 | 0.02 | 35 | 1009.7 |
| 20260505162133 | 62 | 312 | 2.0 | 5.0 | 0.00 | 0.18 | 0.02 | 34 | 1009.6 |
| 20260505161133 | 55 | 263 | 2.0 | 6.0 | 0.00 | 0.18 | 0.02 | 43 | 1009.5 |
| 20260505160132 | 60 | 282 | 2.0 | 4.0 | 0.00 | 0.18 | 0.02 | 37 | 1009.4 |
| 20260505153133 | 58 | 359 | 1.0 | 5.0 | 0.00 | 0.18 | 0.02 | 37 | 1009.6 |
| 20260505152133 | 60 | 318 | 2.0 | 5.0 | 0.00 | 0.18 | 0.02 | 35 | 1009.6 |
| 20260505151132 | 62 | 337 | 1.0 | 4.0 | 0.00 | 0.18 | 0.02 | 34 | 1009.6 |
| 20260505150133 | 59 | 359 | 1.0 | 4.0 | 0.00 | 0.18 | 0.02 | 39 | 1009.7 |
| 20260505140132 | 56 | 230 | 5.0 | 9.0 | 0.00 | 0.18 | 0.02 | 38 | 1009.7 |
| 20260505124908 | 54 | 266 | 5.0 | 9.0 | 0.00 | 0.18 | 0.02 | 46 | 1010.0 |
| 20260505123907 | 55 | 293 | 4.0 | 6.0 | 0.00 | 0.20 | 0.02 | 45 | 1010.0 |
| 20260505122907 | 56 | 280 | 4.0 | 7.0 | 0.00 | 0.22 | 0.02 | 41 | 1010.0 |
| 20260505121907 | 54 | 293 | 4.0 | 8.0 | 0.00 | 0.22 | 0.02 | 44 | 1010.1 |
| 20260505120909 | 54 | 226 | 4.0 | 8.0 | 0.00 | 0.30 | 0.02 | 45 | 1010.1 |
| 20260505115907 | 55 | 239 | 4.0 | 8.0 | 0.00 | 0.31 | 0.02 | 51 | 1010.1 |
| 20260505114907 | 55 | 260 | 4.0 | 8.0 | 0.00 | 0.31 | 0.02 | 47 | 1010.3 |
| 20260505113906 | 52 | 298 | 5.0 | 9.0 | 0.00 | 0.31 | 0.02 | 44 | 1010.5 |
| 20260505112906 | 53 | 305 | 4.0 | 9.0 | 0.00 | 0.31 | 0.02 | 50 | 1010.6 |
| 20260505111906 | 53 | 89 | 4.0 | 7.0 | 0.00 | 0.31 | 0.02 | 50 | 1010.8 |
| 20260505110907 | 51 | 215 | 5.0 | 8.0 | 0.00 | 0.31 | 0.02 | 48 | 1010.8 |
| 20260505101907 | 50 | 261 | 5.0 | 8.0 | 0.00 | 0.31 | 0.02 | 55 | 1011.0 |
| 20260505100907 | 49 | 262 | 5.0 | 8.0 | 0.00 | 0.31 | 0.02 | 57 | 1011.1 |
| 20260505095906 | 52 | 258 | 4.0 | 8.0 | 0.00 | 0.31 | 0.02 | 57 | 1011.1 |
| 20260505094906 | 49 | 274 | 3.0 | 7.0 | 0.00 | 0.31 | 0.02 | 58 | 1011.0 |
| 20260505093644 | 49 | 263 | 3.0 | 8.0 | 0.00 | 0.33 | 0.02 | 59 | 1011.2 |
| 20260505092643 | 48 | 226 | 4.0 | 8.0 | 0.00 | 0.33 | 0.02 | 65 | 1011.2 |
| 20260505091643 | 49 | 237 | 3.0 | 6.0 | 0.00 | 0.33 | 0.02 | 64 | 1011.2 |
| 20260505090643 | 47 | 272 | 4.0 | 10.0 | 0.00 | 0.33 | 0.02 | 67 | 1011.4 |
| 20260505085644 | 47 | 304 | 3.0 | 7.0 | 0.00 | 0.33 | 0.02 | 68 | 1011.3 |
| 20260505084644 | 45 | 218 | 4.0 | 8.0 | 0.00 | 0.33 | 0.02 | 73 | 1011.5 |
| 20260505083644 | 46 | 279 | 4.0 | 8.0 | 0.00 | 0.33 | 0.02 | 73 | 1011.5 |
| 20260505082644 | 45 | 253 | 4.0 | 6.0 | 0.00 | 0.33 | 0.02 | 75 | 1011.4 |
| 20260505081643 | 45 | 251 | 4.0 | 7.0 | 0.00 | 0.33 | 0.02 | 74 | 1011.4 |
| 20260505080643 | 45 | 149 | 2.0 | 5.0 | 0.00 | 0.33 | 0.02 | 76 | 1011.3 |
| 20260505075644 | 45 | 266 | 3.0 | 7.0 | 0.00 | 0.33 | 0.02 | 73 | 1011.3 |
| 20260505074644 | 45 | 265 | 3.0 | 6.0 | 0.00 | 0.33 | 0.02 | 76 | 1011.3 |
| 20260505073643 | 45 | 279 | 3.0 | 4.0 | 0.00 | 0.33 | 0.02 | 80 | 1011.4 |
| 20260505072644 | 45 | 224 | 2.0 | 4.0 | 0.00 | 0.33 | 0.02 | 80 | 1011.4 |
| 20260505071644 | 44 | 255 | 3.0 | 5.0 | 0.00 | 0.33 | 0.02 | 81 | 1011.4 |
| 20260505070644 | 44 | 273 | 2.0 | 5.0 | 0.00 | 0.33 | 0.02 | 81 | 1011.3 |
| 20260505065643 | 43 | 263 | 2.0 | 4.0 | 0.00 | 0.33 | 0.02 | 82 | 1011.5 |
| 20260505064643 | 43 | 275 | 2.0 | 4.0 | 0.00 | 0.33 | 0.02 | 81 | 1011.4 |
| 20260505063643 | 42 | 214 | 3.0 | 5.0 | 0.00 | 0.33 | 0.02 | 84 | 1011.4 |
| 20260505062643 | 43 | 266 | 2.0 | 5.0 | 0.00 | 0.33 | 0.02 | 85 | 1011.4 |
| 20260505061642 | 42 | 275 | 2.0 | 4.0 | 0.00 | 0.33 | 0.02 | 87 | 1011.5 |
| 20260505060642 | 43 | 272 | 1.0 | 3.0 | 0.00 | 0.33 | 0.02 | 87 | 1011.4 |
| 20260505055642 | 44 | 274 | 0.0 | 2.0 | 0.00 | 0.33 | 0.02 | 86 | 1011.3 |
| 20260505054643 | 43 | 274 | 1.0 | 3.0 | 0.00 | 0.33 | 0.02 | 87 | 1011.3 |
| 20260505053643 | 44 | 241 | 1.0 | 2.0 | 0.00 | 0.33 | 0.02 | 87 | 1011.2 |
| 20260505052719 | 42 | 240 | 2.0 | 3.0 | 0.00 | 0.33 | 0.02 | 88 | 1011.3 |
| 20260505051721 | 43 | 234 | 2.0 | 5.0 | 0.00 | 0.33 | 0.02 | 88 | 1011.2 |
| 20260505050720 | 43 | 210 | 2.0 | 5.0 | 0.00 | 0.33 | 0.02 | 88 | 1011.2 |